• In Netherlands
  • List of Countries
  • For 7 days
  • Water Temperature
  • Satellite Maps
  • Weather Map
  • Weather Widgets
  • user-avatar
    Login

    Hourly Weather Trinidad

    Today, 26 March, Sunday

    Time Temperature Precipitation Wind Pressure Humidity
    00:00 +26°C° 0 mm 1 mps 743 mmHg 94%
    01:00 +26°C° 0 mm 1 mps 743 mmHg 95%
    02:00 +25°C° 0 mm 1 mps 742 mmHg 96%
    03:00 +25°C° 0 mm 1 mps 742 mmHg 97%
    04:00 +25°C° 0 mm 1 mps 742 mmHg 97%
    05:00 +25°C° 0 mm 1 mps 742 mmHg 98%
    06:00 +26°C° 0 mm 1 mps 743 mmHg 95%
    07:00 +26°C° 0 mm 1 mps 743 mmHg 91%
    08:00 +27°C° 0 mm 1 mps 744 mmHg 88%
    09:00 +29°C° 0.1 mm 2 mps 744 mmHg 81%
    10:00 +31°C° 0.1 mm 2 mps 744 mmHg 73%
    11:00 +34°C° 0.1 mm 2 mps 744 mmHg 65%
    12:00 +34°C° 0.2 mm 3 mps 744 mmHg 62%
    13:00 +35°C° 0.2 mm 3 mps 743 mmHg 59%
    14:00 +35°C° 0.2 mm 3 mps 742 mmHg 56%
    15:00 +35°C° 0 mm 2 mps 741 mmHg 60%
    16:00 +34°C° 0 mm 2 mps 740 mmHg 63%
    17:00 +34°C° 0 mm 2 mps 740 mmHg 67%
    18:00 +31°C° 0 mm 2 mps 740 mmHg 72%
    19:00 +30°C° 0 mm 2 mps 741 mmHg 78%
    20:00 +28°C° 0 mm 2 mps 741 mmHg 83%
    21:00 +28°C° 0 mm 2 mps 742 mmHg 85%
    22:00 +27°C° 0 mm 2 mps 742 mmHg 87%
    23:00 +27°C° 0 mm 1 mps 743 mmHg 89%

    Tomorrow, 27 March, Monday

    Time Temperature Precipitation Wind Pressure Humidity
    00:00 +27°C° 0 mm 1 mps 743 mmHg 90%
    01:00 +26°C° 0 mm 1 mps 743 mmHg 92%
    02:00 +26°C° 0 mm 1 mps 742 mmHg 93%
    03:00 +26°C° 0 mm 1 mps 742 mmHg 94%
    04:00 +26°C° 0 mm 1 mps 742 mmHg 95%
    05:00 +25°C° 0 mm 1 mps 742 mmHg 96%
    06:00 +26°C° 0 mm 1 mps 743 mmHg 93%
    07:00 +27°C° 0 mm 2 mps 744 mmHg 90%
    08:00 +28°C° 0 mm 2 mps 744 mmHg 87%
    09:00 +29°C° 0.2 mm 2 mps 744 mmHg 82%
    10:00 +30°C° 0.2 mm 3 mps 745 mmHg 77%
    11:00 +33°C° 0.2 mm 3 mps 745 mmHg 71%
    12:00 +33°C° 0.1 mm 3 mps 744 mmHg 69%
    13:00 +34°C° 0.1 mm 3 mps 743 mmHg 66%
    14:00 +34°C° 0.1 mm 3 mps 743 mmHg 63%
    15:00 +34°C° 0 mm 3 mps 742 mmHg 66%
    16:00 +34°C° 0 mm 2 mps 741 mmHg 69%
    17:00 +32°C° 0 mm 2 mps 741 mmHg 71%
    18:00 +31°C° 0 mm 2 mps 741 mmHg 77%
    19:00 +29°C° 0 mm 2 mps 741 mmHg 83%
    20:00 +28°C° 0 mm 1 mps 741 mmHg 89%
    21:00 +28°C° 0 mm 1 mps 742 mmHg 90%
    22:00 +27°C° 0 mm 1 mps 743 mmHg 91%
    23:00 +27°C° 0 mm 1 mps 743 mmHg 92%

    Day after tomorrow, 28 March, Tuesday

    Time Temperature Precipitation Wind Pressure Humidity
    00:00 +27°C° 0.2 mm 1 mps 743 mmHg 93%
    01:00 +27°C° 0.2 mm 1 mps 743 mmHg 93%
    02:00 +26°C° 0.2 mm 1 mps 743 mmHg 94%
    03:00 +26°C° 0.3 mm 1 mps 743 mmHg 94%
    04:00 +26°C° 0.3 mm 1 mps 743 mmHg 95%
    05:00 +26°C° 0.3 mm 1 mps 743 mmHg 95%
    06:00 +26°C° 0.2 mm 1 mps 743 mmHg 93%
    07:00 +27°C° 0.2 mm 1 mps 744 mmHg 90%
    08:00 +28°C° 0.2 mm 1 mps 745 mmHg 88%
    09:00 +29°C° 0.3 mm 2 mps 745 mmHg 84%
    10:00 +30°C° 0.3 mm 2 mps 746 mmHg 80%
    11:00 +32°C° 0.3 mm 2 mps 746 mmHg 75%
    12:00 +32°C° 0.3 mm 2 mps 745 mmHg 71%
    13:00 +34°C° 0.3 mm 2 mps 745 mmHg 67%
    14:00 +34°C° 0.3 mm 2 mps 744 mmHg 62%
    15:00 +34°C° 0 mm 2 mps 743 mmHg 64%
    16:00 +34°C° 0 mm 2 mps 742 mmHg 66%
    17:00 +33°C° 0 mm 1 mps 742 mmHg 68%
    18:00 +31°C° 0 mm 1 mps 742 mmHg 74%
    19:00 +29°C° 0 mm 1 mps 742 mmHg 80%
    20:00 +27°C° 0 mm 1 mps 742 mmHg 86%
    21:00 +27°C° 0 mm 1 mps 743 mmHg 88%
    22:00 +27°C° 0 mm 1 mps 743 mmHg 90%
    23:00 +26°C° 0 mm 1 mps 744 mmHg 92%

    29 March, Wednesday

    Time Temperature Precipitation Wind Pressure Humidity
    00:00 +26°C° 0 mm 1 mps 743 mmHg 92%
    01:00 +26°C° 0 mm 1 mps 743 mmHg 93%
    02:00 +26°C° 0 mm 1 mps 743 mmHg 93%
    03:00 +26°C° 1.2 mm 1 mps 743 mmHg 94%
    04:00 +23°C° 1.2 mm 0 mps 742 mmHg 95%
    05:00 +23°C° 1.2 mm 0 mps 742 mmHg 96%
    06:00 +24°C° 0.4 mm 0 mps 743 mmHg 94%
    07:00 +25°C° 0.4 mm 0 mps 744 mmHg 93%
    08:00 +26°C° 0.4 mm 0 mps 744 mmHg 91%
    09:00 +29°C° 0.8 mm 1 mps 745 mmHg 88%
    10:00 +30°C° 0.8 mm 1 mps 745 mmHg 85%
    11:00 +31°C° 0.8 mm 1 mps 745 mmHg 82%
    12:00 +31°C° 0.8 mm 1 mps 744 mmHg 77%
    13:00 +32°C° 0.8 mm 1 mps 743 mmHg 73%
    14:00 +32°C° 0.8 mm 1 mps 743 mmHg 68%
    15:00 +32°C° 0 mm 1 mps 742 mmHg 70%
    16:00 +32°C° 0 mm 1 mps 741 mmHg 72%
    17:00 +31°C° 0 mm 1 mps 741 mmHg 75%
    18:00 +30°C° 0 mm 1 mps 741 mmHg 79%
    19:00 +29°C° 0 mm 1 mps 741 mmHg 83%
    20:00 +27°C° 0 mm 1 mps 742 mmHg 87%
    21:00 +27°C° 0 mm 1 mps 742 mmHg 89%
    22:00 +27°C° 0 mm 1 mps 742 mmHg 90%
    23:00 +26°C° 0 mm 1 mps 742 mmHg 92%

    30 March, Thursday

    Time Temperature Precipitation Wind Pressure Humidity
    00:00 +26°C° 0 mm 1 mps 742 mmHg 93%
    01:00 +26°C° 0 mm 1 mps 741 mmHg 93%
    02:00 +26°C° 0 mm 1 mps 741 mmHg 94%
    03:00 +25°C° 0 mm 1 mps 741 mmHg 95%
    04:00 +25°C° 0 mm 1 mps 741 mmHg 95%
    05:00 +25°C° 0 mm 1 mps 741 mmHg 96%
    06:00 +26°C° 0 mm 2 mps 741 mmHg 93%
    07:00 +27°C° 0 mm 2 mps 742 mmHg 90%
    08:00 +28°C° 0 mm 2 mps 743 mmHg 87%
    09:00 +29°C° 0.1 mm 3 mps 743 mmHg 80%
    10:00 +31°C° 0.1 mm 3 mps 743 mmHg 73%
    11:00 +33°C° 0.1 mm 4 mps 743 mmHg 66%
    12:00 +34°C° 0.1 mm 4 mps 742 mmHg 64%
    13:00 +34°C° 0.1 mm 4 mps 741 mmHg 62%
    14:00 +35°C° 0.1 mm 4 mps 740 mmHg 60%
    15:00 +35°C° 0 mm 3 mps 740 mmHg 63%
    16:00 +34°C° 0 mm 3 mps 740 mmHg 65%
    17:00 +34°C° 0 mm 3 mps 739 mmHg 68%
    18:00 +31°C° 0 mm 2 mps 740 mmHg 74%
    19:00 +30°C° 0 mm 2 mps 740 mmHg 80%
    20:00 +28°C° 0 mm 2 mps 741 mmHg 85%
    21:00 +28°C° 0.1 mm 2 mps 741 mmHg 87%
    22:00 +27°C° 0.1 mm 2 mps 742 mmHg 89%
    23:00 +27°C° 0.1 mm 2 mps 742 mmHg 91%

    31 March, Friday

    Time Temperature Precipitation Wind Pressure Humidity
    00:00 +27°C° 0 mm 2 mps 742 mmHg 91%
    01:00 +27°C° 0 mm 2 mps 742 mmHg 92%
    02:00 +26°C° 0 mm 2 mps 742 mmHg 93%
    03:00 +26°C° 0 mm 2 mps 742 mmHg 93%
    04:00 +26°C° 0 mm 2 mps 742 mmHg 94%
    05:00 +26°C° 0 mm 2 mps 742 mmHg 95%
    06:00 +26°C° 0.1 mm 2 mps 743 mmHg 92%
    07:00 +27°C° 0.1 mm 2 mps 743 mmHg 90%
    08:00 +27°C° 0.1 mm 3 mps 744 mmHg 88%
    09:00 +28°C° 0.4 mm 3 mps 744 mmHg 84%
    10:00 +29°C° 0.4 mm 3 mps 745 mmHg 79%
    11:00 +30°C° 0.4 mm 4 mps 745 mmHg 75%
    12:00 +30°C° 0.3 mm 4 mps 744 mmHg 77%
    13:00 +30°C° 0.3 mm 4 mps 744 mmHg 78%
    14:00 +30°C° 0.3 mm 4 mps 743 mmHg 80%
    15:00 +30°C° 0.1 mm 4 mps 743 mmHg 78%
    16:00 +30°C° 0.1 mm 3 mps 743 mmHg 77%
    17:00 +30°C° 0.1 mm 3 mps 743 mmHg 75%
    18:00 +29°C° 0 mm 3 mps 743 mmHg 80%
    19:00 +28°C° 0 mm 2 mps 743 mmHg 86%
    20:00 +27°C° 0 mm 2 mps 744 mmHg 91%
    21:00 +26°C° 0 mm 2 mps 744 mmHg 93%
    22:00 +26°C° 0 mm 1 mps 744 mmHg 94%
    23:00 +25°C° 0 mm 1 mps 745 mmHg 96%
    Show more